• In Schweiz
  • Länderverzeichnis
  • Für 7 Tage
  • Wassertemperatur
  • Satellitenkarten
  • Wetterkarte
  • Widgets
  • user-avatar
    Anmelden

    Stündliche Wetter Ozerki

    Heute, 20 Juni, Mittwoch

    Zeit Temperatur Niederschläge Wind Luftdruck Luftfeuchtigkeit
    00:00 +18°C° 0 mm 4 m/S 741 mmHg 88%
    01:00 +18°C° 0 mm 4 m/S 741 mmHg 89%
    02:00 +18°C° 0 mm 4 m/S 740 mmHg 90%
    03:00 +17°C° 0 mm 3 m/S 740 mmHg 92%
    04:00 +17°C° 0 mm 4 m/S 740 mmHg 91%
    05:00 +18°C° 0 mm 4 m/S 740 mmHg 90%
    06:00 +17°C° 0 mm 5 m/S 740 mmHg 89%
    07:00 +19°C° 0 mm 5 m/S 741 mmHg 83%
    08:00 +20°C° 0 mm 6 m/S 741 mmHg 78%
    09:00 +20°C° 0 mm 6 m/S 741 mmHg 72%
    10:00 +21°C° 0 mm 6 m/S 741 mmHg 68%
    11:00 +21°C° 0 mm 7 m/S 741 mmHg 63%
    12:00 +22°C° 0 mm 7 m/S 741 mmHg 59%
    13:00 +22°C° 0 mm 7 m/S 741 mmHg 58%
    14:00 +22°C° 0 mm 7 m/S 741 mmHg 57%
    15:00 +22°C° 0 mm 7 m/S 741 mmHg 56%
    16:00 +22°C° 0 mm 6 m/S 741 mmHg 60%
    17:00 +22°C° 0 mm 5 m/S 741 mmHg 64%
    18:00 +22°C° 0 mm 4 m/S 741 mmHg 68%
    19:00 +20°C° 0 mm 4 m/S 741 mmHg 70%
    20:00 +19°C° 0 mm 4 m/S 742 mmHg 73%
    21:00 +17°C° 0 mm 4 m/S 742 mmHg 75%
    22:00 +17°C° 0 mm 4 m/S 742 mmHg 77%
    23:00 +15°C° 0 mm 4 m/S 742 mmHg 78%

    Morgen, 21 Juni, Donnerstag

    Zeit Temperatur Niederschläge Wind Luftdruck Luftfeuchtigkeit
    00:00 +14°C° 0 mm 4 m/S 742 mmHg 80%
    01:00 +13°C° 0 mm 4 m/S 742 mmHg 82%
    02:00 +13°C° 0 mm 3 m/S 743 mmHg 85%
    03:00 +12°C° 0 mm 3 m/S 743 mmHg 87%
    04:00 +12°C° 0 mm 4 m/S 743 mmHg 85%
    05:00 +13°C° 0 mm 4 m/S 743 mmHg 83%
    06:00 +13°C° 0 mm 4 m/S 743 mmHg 81%
    07:00 +15°C° 0 mm 4 m/S 743 mmHg 75%
    08:00 +16°C° 0 mm 5 m/S 743 mmHg 69%
    09:00 +19°C° 0 mm 5 m/S 743 mmHg 63%
    10:00 +20°C° 0 mm 5 m/S 743 mmHg 62%
    11:00 +21°C° 0 mm 5 m/S 743 mmHg 61%
    12:00 +22°C° 0 mm 6 m/S 743 mmHg 60%
    13:00 +22°C° 0 mm 6 m/S 743 mmHg 60%
    14:00 +23°C° 0 mm 6 m/S 743 mmHg 60%
    15:00 +24°C° 0 mm 6 m/S 743 mmHg 61%
    16:00 +25°C° 0 mm 5 m/S 742 mmHg 64%
    17:00 +25°C° 0 mm 5 m/S 742 mmHg 67%
    18:00 +23°C° 0 mm 4 m/S 742 mmHg 70%
    19:00 +22°C° 0 mm 4 m/S 742 mmHg 75%
    20:00 +20°C° 0 mm 3 m/S 742 mmHg 79%
    21:00 +19°C° 0 mm 3 m/S 742 mmHg 84%
    22:00 +18°C° 0 mm 3 m/S 742 mmHg 86%
    23:00 +17°C° 0 mm 3 m/S 742 mmHg 88%

    übermorgen, 22 Juni, Freitag

    Zeit Temperatur Niederschläge Wind Luftdruck Luftfeuchtigkeit
    00:00 +17°C° 0 mm 3 m/S 743 mmHg 90%
    01:00 +16°C° 0 mm 3 m/S 743 mmHg 91%
    02:00 +16°C° 0 mm 2 m/S 743 mmHg 91%
    03:00 +16°C° 0 mm 2 m/S 743 mmHg 92%
    04:00 +16°C° 0 mm 2 m/S 742 mmHg 91%
    05:00 +17°C° 0 mm 2 m/S 742 mmHg 90%
    06:00 +17°C° 0 mm 3 m/S 742 mmHg 88%
    07:00 +19°C° 0 mm 3 m/S 742 mmHg 83%
    08:00 +21°C° 0 mm 4 m/S 742 mmHg 79%
    09:00 +22°C° 0 mm 4 m/S 742 mmHg 74%
    10:00 +23°C° 0 mm 5 m/S 742 mmHg 71%
    11:00 +25°C° 0 mm 5 m/S 741 mmHg 68%
    12:00 +26°C° 0 mm 6 m/S 741 mmHg 65%
    13:00 +27°C° 0 mm 6 m/S 741 mmHg 65%
    14:00 +27°C° 0 mm 6 m/S 741 mmHg 64%
    15:00 +28°C° 0 mm 6 m/S 740 mmHg 64%
    16:00 +27°C° 0 mm 6 m/S 740 mmHg 67%
    17:00 +27°C° 0 mm 5 m/S 740 mmHg 70%
    18:00 +27°C° 0 mm 4 m/S 739 mmHg 73%
    19:00 +25°C° 0 mm 4 m/S 740 mmHg 77%
    20:00 +23°C° 0 mm 4 m/S 740 mmHg 82%
    21:00 +22°C° 0 mm 4 m/S 740 mmHg 86%
    22:00 +21°C° 0 mm 4 m/S 740 mmHg 89%
    23:00 +20°C° 0 mm 3 m/S 740 mmHg 91%

    23 Juni, Samstag

    Zeit Temperatur Niederschläge Wind Luftdruck Luftfeuchtigkeit
    00:00 +20°C° 0 mm 3 m/S 740 mmHg 93%
    01:00 +19°C° 0 mm 3 m/S 740 mmHg 94%
    02:00 +19°C° 0 mm 3 m/S 740 mmHg 95%
    03:00 +18°C° 0 mm 3 m/S 740 mmHg 95%
    04:00 +18°C° 0 mm 3 m/S 740 mmHg 94%
    05:00 +19°C° 0 mm 3 m/S 740 mmHg 92%
    06:00 +19°C° 0 mm 2 m/S 740 mmHg 91%
    07:00 +20°C° 0,1 mm 3 m/S 740 mmHg 88%
    08:00 +21°C° 0,1 mm 3 m/S 740 mmHg 84%
    09:00 +22°C° 0,1 mm 3 m/S 740 mmHg 81%
    10:00 +25°C° 0,4 mm 4 m/S 739 mmHg 76%
    11:00 +26°C° 0,4 mm 5 m/S 739 mmHg 70%
    12:00 +27°C° 0,4 mm 6 m/S 739 mmHg 65%
    13:00 +27°C° 0,5 mm 6 m/S 739 mmHg 64%
    14:00 +28°C° 0,5 mm 6 m/S 738 mmHg 63%
    15:00 +28°C° 0,5 mm 6 m/S 738 mmHg 62%
    16:00 +27°C° 0,9 mm 5 m/S 738 mmHg 69%
    17:00 +26°C° 0,9 mm 5 m/S 738 mmHg 75%
    18:00 +25°C° 0,9 mm 4 m/S 737 mmHg 81%
    19:00 +22°C° 1 mm 4 m/S 737 mmHg 84%
    20:00 +21°C° 1 mm 3 m/S 737 mmHg 87%
    21:00 +19°C° 1 mm 3 m/S 737 mmHg 91%
    22:00 +18°C° 1,4 mm 3 m/S 737 mmHg 92%
    23:00 +17°C° 1,4 mm 3 m/S 737 mmHg 94%

    24 Juni, Sonntag

    Zeit Temperatur Niederschläge Wind Luftdruck Luftfeuchtigkeit
    00:00 +17°C° 1,4 mm 3 m/S 737 mmHg 96%
    01:00 +15°C° 1,1 mm 4 m/S 738 mmHg 95%
    02:00 +14°C° 1,1 mm 5 m/S 738 mmHg 95%
    03:00 +13°C° 1,1 mm 6 m/S 738 mmHg 95%
    04:00 +11°C° 0,1 mm 6 m/S 739 mmHg 94%
    05:00 +10°C° 0,1 mm 6 m/S 739 mmHg 93%
    06:00 +9°C° 0,1 mm 6 m/S 740 mmHg 93%
    07:00 +11°C° 0 mm 6 m/S 740 mmHg 88%
    08:00 +13°C° 0 mm 5 m/S 741 mmHg 83%
    09:00 +14°C° 0 mm 5 m/S 742 mmHg 79%
    10:00 +16°C° 0 mm 5 m/S 742 mmHg 74%
    11:00 +17°C° 0 mm 5 m/S 743 mmHg 69%
    12:00 +20°C° 0 mm 4 m/S 743 mmHg 64%
    13:00 +20°C° 0 mm 4 m/S 743 mmHg 62%
    14:00 +21°C° 0 mm 4 m/S 744 mmHg 60%
    15:00 +21°C° 0 mm 4 m/S 744 mmHg 58%
    16:00 +21°C° 0 mm 3 m/S 744 mmHg 60%
    17:00 +21°C° 0 mm 3 m/S 744 mmHg 62%
    18:00 +21°C° 0 mm 2 m/S 744 mmHg 64%
    19:00 +20°C° 0 mm 2 m/S 745 mmHg 69%
    20:00 +18°C° 0 mm 2 m/S 745 mmHg 74%
    21:00 +16°C° 0 mm 2 m/S 745 mmHg 79%
    22:00 +16°C° 0 mm 2 m/S 745 mmHg 82%
    23:00 +15°C° 0 mm 2 m/S 745 mmHg 84%

    25 Juni, Montag

    Zeit Temperatur Niederschläge Wind Luftdruck Luftfeuchtigkeit
    00:00 +14°C° 0 mm 2 m/S 745 mmHg 87%
    01:00 +14°C° 0 mm 2 m/S 746 mmHg 89%
    02:00 +13°C° 0 mm 2 m/S 746 mmHg 90%
    03:00 +13°C° 0 mm 2 m/S 746 mmHg 92%
    04:00 +13°C° 0 mm 2 m/S 746 mmHg 90%
    05:00 +14°C° 0 mm 2 m/S 746 mmHg 89%
    06:00 +14°C° 0 mm 2 m/S 746 mmHg 87%
    07:00 +16°C° 0 mm 2 m/S 746 mmHg 82%
    08:00 +17°C° 0 mm 3 m/S 746 mmHg 77%
    09:00 +19°C° 0 mm 3 m/S 747 mmHg 71%
    10:00 +20°C° 0 mm 3 m/S 747 mmHg 68%
    11:00 +21°C° 0 mm 4 m/S 747 mmHg 64%
    12:00 +21°C° 0 mm 4 m/S 746 mmHg 60%
    13:00 +22°C° 0 mm 4 m/S 746 mmHg 59%
    14:00 +22°C° 0 mm 4 m/S 746 mmHg 58%
    15:00 +22°C° 0 mm 4 m/S 746 mmHg 57%
    16:00 +22°C° 0 mm 4 m/S 746 mmHg 60%
    17:00 +22°C° 0 mm 3 m/S 746 mmHg 63%
    18:00 +22°C° 0 mm 3 m/S 746 mmHg 66%
    19:00 +20°C° 0 mm 3 m/S 746 mmHg 70%
    20:00 +18°C° 0 mm 2 m/S 746 mmHg 75%
    21:00 +16°C° 0 mm 2 m/S 746 mmHg 80%
    22:00 +15°C° 0 mm 2 m/S 746 mmHg 82%
    23:00 +15°C° 0 mm 2 m/S 747 mmHg 85%
    Mehr zeigen